Hourly Weather Rudka-Chervyns'ka

Today, 1 August, Sunday

Time Temperature Precipitation Wind Pressure Humidity
00:00 +19°C° 0 mm 1 mps 743 mmHg 95%
01:00 +18°C° 0 mm 2 mps 743 mmHg 95%
02:00 +18°C° 0 mm 2 mps 743 mmHg 96%
03:00 +17°C° 0 mm 2 mps 743 mmHg 96%
04:00 +17°C° 0 mm 2 mps 743 mmHg 95%
05:00 +17°C° 0 mm 2 mps 743 mmHg 95%
06:00 +18°C° 0 mm 2 mps 743 mmHg 90%
07:00 +20°C° 0 mm 2 mps 744 mmHg 84%
08:00 +21°C° 0 mm 2 mps 744 mmHg 78%
09:00 +24°C° 0 mm 2 mps 744 mmHg 70%
10:00 +26°C° 0 mm 2 mps 744 mmHg 61%
11:00 +28°C° 0 mm 1 mps 744 mmHg 53%
12:00 +29°C° 0 mm 2 mps 743 mmHg 48%
13:00 +30°C° 0 mm 2 mps 743 mmHg 43%
14:00 +31°C° 0 mm 3 mps 743 mmHg 38%
15:00 +31°C° 0 mm 3 mps 742 mmHg 40%
16:00 +30°C° 0 mm 3 mps 742 mmHg 41%
17:00 +30°C° 0 mm 3 mps 741 mmHg 43%
18:00 +28°C° 0 mm 3 mps 741 mmHg 50%
19:00 +27°C° 0 mm 3 mps 741 mmHg 57%
20:00 +25°C° 0 mm 2 mps 741 mmHg 63%
21:00 +24°C° 1 mm 2 mps 740 mmHg 70%
22:00 +23°C° 1 mm 2 mps 740 mmHg 77%
23:00 +21°C° 1 mm 2 mps 740 mmHg 84%

Tomorrow, 2 August, Monday

Time Temperature Precipitation Wind Pressure Humidity
00:00 +21°C° 0.4 mm 3 mps 740 mmHg 87%
01:00 +20°C° 0.4 mm 3 mps 739 mmHg 90%
02:00 +20°C° 0.4 mm 3 mps 739 mmHg 93%
03:00 +19°C° 0 mm 3 mps 739 mmHg 93%
04:00 +19°C° 0 mm 3 mps 738 mmHg 94%
05:00 +18°C° 0 mm 3 mps 738 mmHg 95%
06:00 +19°C° 0 mm 3 mps 738 mmHg 92%
07:00 +20°C° 0 mm 4 mps 739 mmHg 88%
08:00 +21°C° 0 mm 5 mps 739 mmHg 85%
09:00 +20°C° 0 mm 5 mps 739 mmHg 84%
10:00 +20°C° 0 mm 5 mps 740 mmHg 83%
11:00 +19°C° 0 mm 6 mps 741 mmHg 83%
12:00 +19°C° 0 mm 6 mps 741 mmHg 80%
13:00 +19°C° 0 mm 6 mps 742 mmHg 77%
14:00 +19°C° 0 mm 6 mps 743 mmHg 74%
15:00 +19°C° 0 mm 6 mps 743 mmHg 74%
16:00 +19°C° 0 mm 5 mps 743 mmHg 75%
17:00 +19°C° 0 mm 5 mps 744 mmHg 76%
18:00 +18°C° 0 mm 4 mps 744 mmHg 79%
19:00 +17°C° 0 mm 3 mps 744 mmHg 81%
20:00 +17°C° 0 mm 2 mps 744 mmHg 84%
21:00 +16°C° 0 mm 2 mps 744 mmHg 88%
22:00 +16°C° 0 mm 2 mps 745 mmHg 91%
23:00 +15°C° 0 mm 2 mps 745 mmHg 95%

Day after tomorrow, 3 August, Tuesday

Time Temperature Precipitation Wind Pressure Humidity
00:00 +15°C° 0 mm 2 mps 745 mmHg 95%
01:00 +15°C° 0 mm 2 mps 745 mmHg 95%
02:00 +15°C° 0 mm 2 mps 746 mmHg 95%
03:00 +14°C° 0 mm 2 mps 746 mmHg 95%
04:00 +13°C° 0 mm 3 mps 746 mmHg 94%
05:00 +13°C° 0 mm 3 mps 746 mmHg 94%
06:00 +14°C° 0 mm 3 mps 746 mmHg 84%
07:00 +17°C° 0 mm 4 mps 747 mmHg 75%
08:00 +19°C° 0 mm 4 mps 747 mmHg 65%
09:00 +20°C° 0 mm 4 mps 747 mmHg 59%
10:00 +22°C° 0 mm 4 mps 747 mmHg 52%
11:00 +23°C° 0 mm 5 mps 747 mmHg 46%
12:00 +23°C° 0 mm 4 mps 747 mmHg 46%
13:00 +23°C° 0 mm 4 mps 747 mmHg 47%
14:00 +22°C° 0 mm 3 mps 747 mmHg 47%
15:00 +22°C° 0 mm 3 mps 747 mmHg 48%
16:00 +22°C° 0 mm 3 mps 747 mmHg 48%
17:00 +22°C° 0 mm 3 mps 747 mmHg 49%
18:00 +20°C° 0 mm 2 mps 747 mmHg 54%
19:00 +20°C° 0 mm 1 mps 748 mmHg 60%
20:00 +18°C° 0 mm 1 mps 748 mmHg 65%
21:00 +18°C° 0 mm 1 mps 748 mmHg 66%
22:00 +16°C° 0 mm 1 mps 748 mmHg 68%
23:00 +15°C° 0 mm 1 mps 748 mmHg 69%

4 August, Wednesday

Time Temperature Precipitation Wind Pressure Humidity
00:00 +15°C° 0 mm 1 mps 748 mmHg 70%
01:00 +15°C° 0 mm 1 mps 748 mmHg 70%
02:00 +15°C° 0 mm 2 mps 748 mmHg 71%
03:00 +15°C° 0 mm 2 mps 748 mmHg 72%
04:00 +14°C° 0 mm 2 mps 748 mmHg 73%
05:00 +14°C° 0 mm 2 mps 748 mmHg 75%
06:00 +16°C° 0 mm 2 mps 748 mmHg 70%
07:00 +18°C° 0 mm 2 mps 748 mmHg 65%
08:00 +20°C° 0 mm 2 mps 748 mmHg 59%
09:00 +22°C° 0 mm 3 mps 748 mmHg 55%
10:00 +24°C° 0 mm 3 mps 748 mmHg 51%
11:00 +25°C° 0 mm 3 mps 748 mmHg 47%
12:00 +24°C° 0.4 mm 3 mps 748 mmHg 58%
13:00 +21°C° 0.4 mm 2 mps 748 mmHg 69%
14:00 +20°C° 0.4 mm 2 mps 748 mmHg 79%
15:00 +19°C° 0.9 mm 2 mps 747 mmHg 84%
16:00 +19°C° 0.9 mm 2 mps 747 mmHg 88%
17:00 +18°C° 0.9 mm 2 mps 747 mmHg 92%
18:00 +18°C° 0.3 mm 2 mps 747 mmHg 93%
19:00 +17°C° 0.3 mm 2 mps 747 mmHg 95%
20:00 +17°C° 0.3 mm 2 mps 747 mmHg 96%
21:00 +16°C° 0 mm 2 mps 747 mmHg 96%
22:00 +16°C° 0 mm 1 mps 747 mmHg 97%
23:00 +16°C° 0 mm 1 mps 747 mmHg 97%

5 August, Thursday

Time Temperature Precipitation Wind Pressure Humidity
00:00 +16°C° 0 mm 1 mps 746 mmHg 97%
01:00 +15°C° 0 mm 1 mps 746 mmHg 97%
02:00 +15°C° 0 mm 1 mps 746 mmHg 97%
03:00 +15°C° 0 mm 1 mps 746 mmHg 97%
04:00 +15°C° 0 mm 1 mps 746 mmHg 97%
05:00 +15°C° 0 mm 1 mps 746 mmHg 97%
06:00 +16°C° 0 mm 1 mps 746 mmHg 93%
07:00 +16°C° 0 mm 0 mps 746 mmHg 89%
08:00 +18°C° 0 mm 0 mps 746 mmHg 85%
09:00 +19°C° 0 mm 0 mps 746 mmHg 77%
10:00 +21°C° 0 mm 0 mps 746 mmHg 68%
11:00 +23°C° 0 mm 0 mps 746 mmHg 59%
12:00 +23°C° 0 mm 0 mps 746 mmHg 57%
13:00 +24°C° 0 mm 0 mps 745 mmHg 54%
14:00 +26°C° 0 mm 1 mps 745 mmHg 51%
15:00 +27°C° 0 mm 1 mps 745 mmHg 51%
16:00 +27°C° 0 mm 1 mps 745 mmHg 50%
17:00 +27°C° 0 mm 1 mps 744 mmHg 49%
18:00 +25°C° 0 mm 1 mps 744 mmHg 56%
19:00 +23°C° 0 mm 1 mps 743 mmHg 63%
20:00 +21°C° 0 mm 2 mps 743 mmHg 70%
21:00 +20°C° 0.1 mm 2 mps 743 mmHg 75%
22:00 +20°C° 0.1 mm 2 mps 743 mmHg 79%
23:00 +19°C° 0.1 mm 2 mps 743 mmHg 83%

6 August, Friday

Time Temperature Precipitation Wind Pressure Humidity
00:00 +18°C° 3.4 mm 2 mps 742 mmHg 88%
01:00 +18°C° 3.4 mm 2 mps 742 mmHg 93%
02:00 +18°C° 3.4 mm 3 mps 741 mmHg 98%
03:00 +18°C° 2.3 mm 3 mps 741 mmHg 98%
04:00 +18°C° 2.3 mm 3 mps 741 mmHg 98%
05:00 +18°C° 2.3 mm 3 mps 740 mmHg 98%
06:00 +18°C° 0.5 mm 3 mps 740 mmHg 97%
07:00 +18°C° 0.5 mm 2 mps 740 mmHg 97%
08:00 +18°C° 0.5 mm 2 mps 740 mmHg 96%
09:00 +18°C° 0.5 mm 2 mps 740 mmHg 96%
10:00 +18°C° 0.5 mm 2 mps 740 mmHg 96%
11:00 +19°C° 0.5 mm 2 mps 740 mmHg 97%
12:00 +19°C° 0.1 mm 2 mps 741 mmHg 96%
13:00 +19°C° 0.1 mm 2 mps 741 mmHg 95%
14:00 +19°C° 0.1 mm 2 mps 741 mmHg 94%
15:00 +20°C° 0 mm 2 mps 741 mmHg 91%
16:00 +20°C° 0 mm 2 mps 741 mmHg 88%
17:00 +21°C° 0 mm 2 mps 741 mmHg 85%
18:00 +20°C° 0.1 mm 2 mps 741 mmHg 88%
19:00 +19°C° 0.1 mm 2 mps 741 mmHg 91%
20:00 +18°C° 0.1 mm 2 mps 741 mmHg 94%
21:00 +18°C° 1.2 mm 2 mps 741 mmHg 95%
22:00 +18°C° 1.2 mm 2 mps 741 mmHg 96%
23:00 +17°C° 1.2 mm 2 mps 741 mmHg 97%
Show more

We Need Your Consent

Meteoprog and our Service Providers may store and access personal data such as cookies, device identifiers or other similar technologies on your device and process such data to personalise content and ads, as well as provide social media features and to analyse the traffic.

  • Store and/or access information on your device

    Cookies, device identifiers or other information can be stored or accessed on your device for the purposes indicated above.

  • Personalised ads and content, ad and content measurement, audience insights, and products development

    Ads and content can be personalised based on a profile. More data can be added to better personalise ads and content. Ad and content performance can be measured. Insights about the audience who saw the ads and content can be derived. Such data can be used to develop or improve user’s experience, systems and software.

By clicking ‘I Agree’ you will allow the use of indicated cookies, device identifiers, web beacons or other similar technologies. Your settings can be changed in the browser on your device.

For certain purposes, legitimate interests may be relied on, rather than consent. You can read more about this in our Privacy and Cookie Policy.